#timestamp,LO_Frequency,Hit,StdDev 
1545336015.9,286046995.2,Y
1545336035.7,286046996.8,P
1545336055.5,286046998.8,N
1545336075.4,286046999.6,N
1545336095.2,286046999.1,N
1545336115.0,286046998.9,N
1545336115.9,286046998.9,N
1545336135.8,286046999.1,N
1545336155.6,286046998.7,N
1545336175.5,286046998.2,N
1545336195.3,286046998.6,N
1545336215.1,286046997.0,Y
1545336235.9,286046997.0,P
1545336255.7,286046996.9,P
1545336275.6,286046996.9,P
1545336295.4,286046998.9,N
1545336315.2,286046998.8,N
1545336335.1,286047001.0,N
1545336336.0,286047001.0,N
1545336355.8,286047000.3,N
1545336375.6,286047000.5,N
1545336395.5,286047001.2,N
1545336415.3,286046998.7,N
1545336435.2,286046998.7,N
1545336455.9,286046999.3,N
1545336475.7,286046998.9,N
1545336495.6,286046998.4,N
1545336515.4,286047001.0,N
1545336535.2,286046999.1,N
1545336555.1,286046999.1,N
1545336556.0,286046999.1,N
1545336575.8,286046999.3,N
1545336595.7,286046997.2,N
1545336615.5,286046999.5,N
1545336635.3,286046998.7,N
1545336655.2,286046999.3,N
1545336675.9,286046999.3,N
1545336695.7,286047000.8,N
1545336715.6,286046998.6,N
1545336735.4,286046998.8,N
1545336755.3,286046998.5,N
1545336775.1,286046997.0,N
1545336776.0,286046997.0,N
1545336795.8,286046999.5,N
1545336815.7,286046999.6,N
1545336835.5,286046998.4,N
1545336855.3,286047001.2,N
1545336875.2,286047000.7,N
1545336895.0,286047000.5,N
1545336895.9,286047000.5,N
1545336915.8,286047000.9,N
1545336935.6,286047000.1,N
1545336955.5,286047002.6,N
1545336975.3,286047001.4,N
1545336995.1,286047002.1,N
1545337015.9,286047002.0,N
1545337035.7,286047002.7,N
1545337055.5,286047001.8,N
1545337075.4,286047001.4,N
1545337095.2,286047000.2,N
1545337115.1,286047000.5,N
1545337116.0,286047000.5,N
1545337135.8,286046998.1,N
1545337155.6,286046999.9,N
1545337175.5,286047000.3,N
1545337195.3,286047000.8,N
1545337215.2,286047001.2,N
1545337235.9,286046998.1,N
1545337255.7,286046998.9,N
1545337275.6,286046999.2,N
1545337295.4,286046998.2,N
1545337315.2,286047001.2,N
1545337335.1,286046999.2,N
1545337336.0,286046999.2,N
1545337355.8,286046999.4,N
1545337375.7,286046999.2,N
1545337395.5,286046998.8,N
1545337415.3,286046998.6,N
1545337435.2,286047001.0,N
1545337455.0,286047000.1,N
1545337455.9,286047000.1,N
1545337475.8,286047000.2,N
1545337495.6,286047000.4,N
1545337515.4,286047000.4,N
1545337535.3,286047000.4,N
1545337555.1,286047000.8,N
1545337575.8,286047000.5,N
1545337595.7,286047000.1,N
1545337615.5,286047000.3,N
1545337635.4,286047002.1,N
1545337655.2,286047000.3,N
1545337675.0,286047000.3,N
1545337675.9,286047000.3,N
1545337695.8,286047000.6,N
1545337715.6,286047000.8,N
1545337735.4,286046999.4,N
1545337755.3,286046998.4,N
1545337775.1,286046999.3,N
1545337795.9,286047001.1,N
1545337815.7,286047000.9,N
1545337835.5,286047000.7,N
1545337855.4,286047000.8,N
1545337875.2,286047000.8,N
1545337895.0,286047001.2,N
1545337896.0,286047001.2,N
1545337915.8,286047001.2,N
1545337935.6,286047001.2,N
1545337955.5,286047000.3,N
1545337975.3,286046998.4,N
1545337995.1,286046999.1,N
1545338015.9,286047000.6,N
1545338035.7,286047000.8,N
1545338055.6,286047001.1,N
1545338075.4,286046998.8,N
1545338095.2,286047000.7,N
1545338115.1,286047000.7,N
1545338116.0,286047000.7,N
1545338135.8,286046999.9,N
1545338155.6,286047000.4,N
1545338175.5,286047000.7,N
1545338195.3,286046998.1,N
1545338215.2,286046998.7,N
1545338235.9,286046998.5,N
1545338255.7,286046998.7,N
1545338275.6,286046999.1,N
1545338295.4,286046999.6,N
1545338315.2,286046999.3,N
1545338335.1,286046999.0,N
1545338336.0,286046999.0,N
1545338355.8,286046999.2,N
1545338375.7,286046998.9,N
1545338395.5,286046998.1,N
1545338415.3,286046999.8,N
1545338435.2,286047000.9,N
1545338455.0,286047000.2,N
1545338455.9,286047000.2,N
1545338475.7,286047000.4,N
1545338495.6,286047002.2,N
1545338515.4,286047001.8,N
1545338535.3,286047000.5,N
1545338555.1,286047000.2,N
1545338556.0,286047000.2,N
1545338575.8,286046999.9,N
1545338595.7,286047001.0,N
1545338615.5,286047000.8,N
1545338635.4,286047000.7,N
1545338655.2,286047001.2,N
1545338675.0,286047000.8,N
1545338675.9,286047000.8,N
1545338695.8,286046998.1,N
1545338715.6,286047000.2,N
1545338735.4,286046999.9,N
1545338755.3,286047000.9,N
1545338775.1,286047000.1,N
1545338795.9,286047002.2,N
1545338815.7,286047002.5,N
1545338835.5,286047002.4,N
1545338855.4,286047002.8,N
1545338875.2,286047001.6,N
1545338895.0,286047002.3,N
1545338895.9,286047002.3,N
1545338915.8,286047002.3,N
1545338935.6,286047000.7,N
1545338955.5,286047000.8,N
1545338975.3,286046998.1,N
1545338995.1,286046998.2,N
1545339015.9,286046998.2,N
1545339035.7,286047001.0,N
1545339055.5,286047002.3,N
1545339075.4,286047002.4,N
1545339095.2,286047000.9,N
1545339115.1,286047000.0,N
1545339116.0,286047000.0,N
1545339135.8,286046999.9,N
1545339155.6,286047000.8,N
1545339175.5,286047000.4,N
1545339195.3,286047000.3,N
1545339215.1,286047002.7,N
1545339235.9,286046999.9,N
1545339255.7,286047002.2,N
1545339275.6,286047002.4,N
1545339295.4,286047002.5,N
1545339315.2,286046999.9,N
1545339335.1,286047002.6,N
1545339336.0,286047002.6,N
1545339355.8,286047002.6,N
1545339375.7,286047001.7,N
1545339395.5,286047003.8,N
1545339415.3,286047001.4,N
1545339435.2,286047002.8,N
1545339455.0,286047001.9,N
1545339455.9,286047001.9,N
1545339475.7,286046999.9,N
1545339495.6,286047000.5,N
1545339515.4,286047000.2,N
1545339535.3,286047000.3,N
1545339555.1,286047002.8,N
1545339575.9,286047001.0,N
1545339595.7,286047000.7,N
